Location: Unspecified
(0.0000°N, 0.0000°E)
Time: 16:48:11
(UTC+00:00)

DOVE 4 - Pass Details

Date: 13 December 2017
Orbit: 589 x 802 km, 97.7° (Epoch: 22 July)

Event Time Altitude Azimuth Distance (km) Brightness Sun altitude
Rises 05:02:54 0° 356° (N) 2,867 ? -11.8°
Reaches altitude 10° 05:05:15 10° 347° (NNW) 1,944 ? -11.2°
Maximum altitude 05:09:02 34° 282° (WNW) 991 ? -10.4°
Drops below altitude 10° 05:12:47 10° 217° (SW) 1,916 ? -9.5°
Sets 05:15:05 0° 207° (SSW) 2,819 ? -9.0°
